EDT,Max TemperatureF,Mean TemperatureF,Min TemperatureF,Max Dew PointF,MeanDew PointF,Min DewpointF,Max Humidity, Mean Humidity, Min Humidity, Max Sea Level PressureIn, Mean Sea Level PressureIn, Min Sea Level PressureIn, Max VisibilityMiles, Mean VisibilityMiles, Min VisibilityMiles, Max Wind SpeedMPH, Mean Wind SpeedMPH, Max Gust SpeedMPH,PrecipitationIn, CloudCover, Events, WindDirDegrees
2013-8-1,82,73,64,72,67,64,100,85,54,30.08,30.02,29.96,10,8,0,6,1,,0.00,5,Fog-Thunderstorm,116
2013-8-2,82,71,60,70,64,59,100,79,54,30.13,30.09,30.03,10,9,5,6,1,,0.00,1,,165
2013-8-3,86,75,64,70,66,64,100,79,48,30.12,30.08,30.03,10,8,2,7,1,,0.00,2,,245
2013-8-4,84,74,64,68,62,54,100,73,39,30.15,30.08,30.03,10,10,3,10,3,16,0.08,3,Rain,341
2013-8-5,80,70,60,70,64,59,100,83,61,30.18,30.12,30.06,10,9,2,8,2,,0.02,6,Rain,143
2013-8-6,78,73,68,68,67,64,100,88,69,30.15,30.10,30.05,10,9,4,12,2,,0.00,7,,172
2013-8-7,73,70,68,72,69,68,100,97,88,30.18,30.14,30.12,10,6,1,8,1,,1.00,8,Rain,163
2013-8-8,82,75,68,73,70,68,100,93,70,30.16,30.12,30.09,10,7,2,15,1,22,0.17,7,Rain-Thunderstorm,151
2013-8-9,87,78,68,73,71,68,100,90,58,30.15,30.12,30.09,10,7,1,13,1,20,0.06,2,Rain-Thunderstorm,226
2013-8-10,86,77,68,73,70,68,100,93,66,30.20,30.17,30.14,10,7,0,15,2,22,0.27,4,Fog-Rain-Thunderstorm,232
2013-8-11,87,76,64,73,69,64,100,86,58,30.22,30.17,30.12,10,8,0,14,2,20,0.01,4,Fog-Thunderstorm,214
2013-8-12,84,75,66,73,70,66,100,87,62,30.16,30.12,30.05,10,8,0,7,1,10,0.71,3,Fog-Rain-Thunderstorm,226
2013-8-13,82,74,66,72,68,64,100,90,65,30.06,29.97,29.91,10,8,0,8,1,,0.53,5,Fog-Rain,272
2013-8-14,77,68,59,66,58,52,100,72,41,30.19,30.07,29.98,10,10,7,8,2,,0.00,2,,5
2013-8-15,69,61,53,59,55,52,100,83,60,30.27,30.21,30.17,10,10,5,7,1,,0.00,5,,96
2013-8-16,71,61,51,59,56,52,100,84,60,30.27,30.23,30.19,10,8,2,8,1,,0.00,3,,87
2013-8-17,64,60,55,61,58,55,100,92,73,30.30,30.26,30.24,10,8,2,8,2,,0.27,6,Rain,49
2013-8-18,71,66,62,68,64,61,100,92,78,30.31,30.26,30.22,10,9,2,7,2,,0.93,8,Rain,97
2013-8-19,75,70,64,68,65,64,100,93,73,30.28,30.23,30.18,10,8,1,6,2,,0.55,6,Rain,165
2013-8-20,78,70,62,70,66,63,100,90,69,30.28,30.24,30.19,10,8,0,6,1,,0.00,4,Fog,195
2013-8-21,78,71,64,70,68,64,100,92,74,30.33,30.27,30.21,10,8,0,6,1,16,0.03,4,Fog-Rain-Thunderstorm,226
2013-8-22,86,74,62,72,67,63,100,82,55,30.25,30.19,30.10,10,7,0,7,2,,0.00,3,Fog,240
2013-8-23,80,71,62,72,66,61,100,85,61,30.20,30.12,30.06,10,8,3,10,2,,0.00,2,Rain-Thunderstorm,270
2013-8-24,77,68,59,61,57,52,100,73,44,30.41,30.31,30.22,10,10,2,12,4,,0.00,1,,61
2013-8-25,77,65,53,61,56,54,100,79,44,30.49,30.42,30.38,10,10,7,9,1,,0.00,1,,104
2013-8-26,80,66,53,66,60,54,100,82,54,30.42,30.32,30.20,10,9,4,6,1,,0.00,0,,158
2013-8-27,86,73,60,70,65,61,100,81,48,30.22,30.14,30.09,10,8,4,12,2,,0.00,0,,305
2013-8-28,87,76,66,72,69,64,100,81,55,30.11,30.06,30.00,10,8,3,10,2,,0.00,0,,229
2013-8-29,87,78,68,72,69,66,100,81,55,30.12,30.03,29.97,10,9,2,10,2,20,0.63,3,Rain-Thunderstorm,115
2013-8-30,82,76,69,72,68,64,100,85,61,30.16,30.10,30.03,10,9,5,6,2,,0.00,6,,101
2013-8-31,86,77,68,72,69,64,100,89,58,30.05,30.02,29.97,10,8,2,24,1,30,0.33,3,Rain-Thunderstorm,195